COSMOS 2413 (712) 1 28509U 04053B 13141.40634189 .00000008 00000-0 10000-3 0 3391 2 28509 63.2330 230.1636 0005645 163.4834 88.2788 2.13100635 65376 COSMOS 2419 (714) 1 28915U 05050A 13140.69139527 .00000084 00000-0 00000+0 0 987 2 28915 64.9541 116.0620 0017540 342.4102 64.0139 2.13101678 57616 COSMOS 2425 (716) 1 29670U 06062A 13141.42496911 -.00000019 00000-0 10000-3 0 8033 2 29670 65.8969 354.7688 0022572 352.1768 332.0062 2.13105195 49826 COSMOS 2426 (717) 1 29671U 06062B 13141.47779862 -.00000019 00000-0 10000-3 0 8207 2 29671 65.9128 354.8240 0016689 158.5446 75.2030 2.13103220 49832 COSMOS 2424 (715) 1 29672U 06062C 13140.72343132 -.00000021 00000-0 10000-3 0 8249 2 29672 65.8978 354.7983 0016091 157.5647 37.0193 2.13102206 49814 COSMOS 2433 (720) 1 32275U 07052A 13140.50471634 .00000085 00000-0 10000-3 0 5490 2 32275 64.9674 115.8190 0004938 277.1354 252.1841 2.13096384 43326 COSMOS 2432 (719) 1 32276U 07052B 13141.43046707 .00000078 00000-0 10000-3 0 5316 2 32276 64.9802 115.8353 0014740 331.1386 143.4823 2.13098083 43341 COSMOS 2434 (721) 1 32393U 07065A 13141.50888654 -.00000020 00000-0 00000+0 0 3909 2 32393 65.5227 354.6264 0005846 101.9670 18.4309 2.13101303 42056 COSMOS 2435 (722) 1 32394U 07065B 13141.12876714 -.00000021 00000-0 10000-3 0 2941 2 32394 65.5247 354.6268 0020927 5.4830 139.9398 2.13103889 41985 COSMOS 2436 (723) 1 32395U 07065C 13140.45151987 -.00000023 00000-0 10000-3 0 2992 2 32395 65.5332 354.6797 0018050 0.6674 120.3641 2.13103006 41969 COSMOS 2442 (724) 1 33378U 08046A 13140.42802689 .00000084 00000-0 10000-3 0 3316 2 33378 64.8835 115.3002 0025935 328.2622 194.4374 2.13103780 36186 COSMOS 2443 (725) 1 33379U 08046B 13141.44395259 .00000077 00000-0 10000-3 0 3154 2 33379 64.8920 115.3162 0019052 192.4283 253.4916 2.13101654 36216 COSMOS 2444 (726) 1 33380U 08046C 13140.27111369 .00000085 00000-0 10000-3 0 3209 2 33380 64.8998 115.3791 0025222 322.2083 262.8383 2.13107399 36177 COSMOS 2447 (727) 1 33466U 08067A 13141.03759104 -.00000001 00000-0 00000+0 0 2637 2 33466 64.0712 234.4507 0003944 260.9901 291.5043 2.13100670 34254 COSMOS 2449 (729) 1 33467U 08067B 13140.22458895 -.00000006 00000-0 10000-3 0 2631 2 33467 64.0584 234.4463 0021448 252.2931 172.2577 2.13098068 34264 COSMOS 2448 (728) 1 33468U 08067C 13140.30967012 -.00000005 00000-0 10000-3 0 2557 2 33468 64.0636 234.4512 0004586 304.2494 93.5143 2.13101458 34255 COSMOS 2456 (730) 1 36111U 09070A 13140.24423597 -.00000006 00000-0 00000+0 0 35 2 36111 64.3002 234.7012 0004619 318.1794 76.2479 2.13101879 26691 COSMOS 2457 (733) 1 36112U 09070B 13140.39784806 -.00000005 00000-0 00000+0 0 9875 2 36112 64.2817 234.6471 0007023 159.8429 127.0700 2.13101521 26696 COSMOS 2458 (734) 1 36113U 09070C 13141.01965890 -.00000001 00000-0 10000-3 0 9938 2 36113 64.2868 234.6249 0001018 24.0609 65.6888 2.13102043 26714 COSMOS 2459 (731) 1 36400U 10007A 13141.27731890 .00000078 00000-0 10000-3 0 9278 2 36400 64.8687 115.0914 0031875 349.1663 285.3452 2.13102586 25061 COSMOS 2461 (735) 1 36401U 10007B 13141.09133953 .00000079 00000-0 10000-3 0 9300 2 36401 64.8616 115.0891 0002927 63.1327 339.0547 2.13102649 25066 COSMOS 2460 (732) 1 36402U 10007C 13141.34839369 .00000077 00000-0 10000-3 0 9367 2 36402 64.8513 115.0715 0002654 275.8072 7.1417 2.13102236 25065 COSMOS 2466 (738) 1 37137U 10041A 13140.86904966 -.00000024 00000-0 10000-3 0 8028 2 37137 65.1017 355.3272 0021250 146.8556 66.7512 2.13102538 21134 COSMOS 2465 (737) 1 37138U 10041B 13141.01130839 -.00000023 00000-0 00000+0 0 8065 2 37138 65.1175 355.3733 0034514 163.7849 340.1244 2.13102936 21135 COSMOS 2464 (736) 1 37139U 10041C 13141.40808572 -.00000022 00000-0 00000+0 0 7917 2 37139 65.1206 355.3490 0022549 18.3713 204.5252 2.13102985 21148 COSMOS 2471 (701K) 1 37372U 11009A 13141.51822492 .00000075 00000-0 10000-3 0 6696 2 37372 64.8629 115.0019 0007291 250.2889 275.2837 2.13108780 17359 COSMOS 2474 (742) 1 37829U 11055A 13141.44474178 .00000002 00000-0 00000+0 0 4918 2 37829 64.6208 234.6086 0007874 262.2610 198.5097 2.13101938 12719 COSMOS 2476 (744) 1 37867U 11064A 13141.37501255 .00000001 00000-0 00000+0 0 4615 2 37867 64.6017 234.7220 0016362 257.8760 194.6740 2.13102086 12063 COSMOS 2477 (745) 1 37868U 11064B 13140.73646481 -.00000003 00000-0 00000+0 0 4619 2 37868 64.6103 234.7722 0014490 259.2863 243.3129 2.13101916 12005 COSMOS 2475 (743) 1 37869U 11064C 13141.17641964 -.00000000 00000-0 00000+0 0 4572 2 37869 64.6176 234.7348 0022193 284.9903 150.4210 2.13102009 12024 COSMOS 2478 (746) 1 37938U 11071A 13140.46214713 .00000084 00000-0 00000+0 0 4410 2 37938 64.8811 115.2299 0014645 248.3516 344.6598 2.13102544 11618